Tracking 19572 objects as of 24-Feb-2019
HD Live streaming from Space Station
objects crossing your sky now

MOLNIYA 1-S

Track MOLNIYA 1-S now!
MOLNIYA 1-S is classified as:


NORAD ID: 7392
Int'l Code: 1974-060A
Perigee: 35,746.9 km
Apogee: 35,800.0 km
Inclination: 8.0 °
Period: 1,435.1 minutes
Semi major axis: 42144 km
RCS: 1.5848 m2 (large)
Launch date: July 29, 1974
Source: Commonwealth of Independent States (former USSR) (CIS)
Launch site: TYURATAM MISSILE AND SPACE COMPLEX (TTMTR)
aabbcc
Your satellite tracking list
Your tracking list is empty




NASA's NSSDC Master Catalog

Two Line Element Set (TLE):
1  7392U 74060A   19054.78215051 -.00000073 +00000-0 +00000-0 0  9997
2  7392 007.9515 299.8680 0006301 171.9779 032.6044 01.00344220107398
Source of the keplerian elements: AFSPC